Wind_Speed
3 3 2 2 3 3 3 3 3 3 3 3 3 4 4 4 4 5 5 5 6 6 6 7 7 6 6 6 6 5 5 5 6 6 6 6 6 6 7 6 6 6 5
4 4 3 3 3 4 3 3 3 3 4 4 4 4 5 5 6 6 6 7 7 7 8 8 8 8 8 8 8 7 7 7 7 7 8 7 7 7 6 6 7 6 6
4 4 4 4 4 4 4 4 4 4 4 5 5 5 6 7 7 8 8 8 8 8 9 9 9 9 9 9 9 8 8 8 8 8 9 8 8 8 7 7 7 7 6
5 5 4 4 4 4 4 4 4 4 5 5 5 6 7 8 8 8 8 9 9 9 9 9 9 9 10 10 10 9 9 9 10 10 10 9 9 9 8 7 7 7 7
6 5 5 4 4 5 5 5 5 5 5 6 6 6 7 8 9 9 9 9 9 9 9 9 9 10 10 10 10 11 11 11 11 10 10 10 9 10 9 9 8 8 7
5 5 5 6 5 5 5 6 6 6 6 6 7 7 7 6 7 7 8 8 9 9 9 9 10 10 10 11 11 11 11 12 12 11 11 10 10 10 10 10 10 10 9
5 6 6 6 6 6 5 6 6 6 6 7 7 7 7 6 6 6 7 8 9 10 10 10 10 11 11 11 11 12 12 12 12 11 11 11 11 11 11 11 11 11 11
6 6 6 6 6 6 6 6 6 6 7 7 7 7 7 7 7 7 7 8 9 9 10 10 11 11 11 11 11 11 11 13 13 12 12 12 12 12 12 12 11 11 12
6 6 6 6 6 6 6 6 6 6 7 7 7 7 7 7 7 8 8 8 9 9 10 11 11 11 11 11 11 11 11 12 12 13 13 13 13 13 13 13 13 12 12
6 6 6 5 5 5 5 5 6 6 6 6 7 7 7 7 7 8 8 9 9 9 9 10 11 11 11 11 11 11 11 11 11 12 13 13 13 13 13 13 13 13 13
5 5 5 5 5 5 5 5 6 6 6 6 6 7 7 7 7 8 8 9 10 11 11 11 11 11 11 11 11 11 12 12 11 12 13 13 13 13 13 13 13 13 13
4 4 4 4 5 5 6 6 6 6 6 7 7 7 8 8 8 7 7 8 9 10 10 11 11 11 11 11 11 12 12 13 13 13 13 14 14 13 13 13 13 13 13
3 4 4 5 5 5 5 5 6 6 7 7 7 8 8 9 9 8 8 8 9 9 10 11 11 12 12 11 11 13 13 13 13 13 13 14 13 13 13 13 13 13 13
3 3 4 4 5 5 5 5 5 6 6 7 7 8 8 8 8 8 9 8 8 9 10 11 10 12 13 12 12 12 13 13 13 13 13 13 13 14 13 13 13 13 13
3 4 4 5 4 4 5 5 5 6 6 6 7 8 8 8 8 8 9 8 9 9 9 10 11 12 12 13 13 13 13 13 13 12 13 14 14 14 14 14 15 15 14
4 5 5 5 5 5 5 5 5 5 6 6 6 7 7 8 8 8 8 9 9 9 10 10 10 10 11 11 13 13 13 13 13 14 14 14 14 14 15 16 16 16 15
4 5 5 5 5 5 5 5 6 6 6 6 7 7 8 8 8 8 9 9 9 9 9 9 9 10 10 10 11 12 13 13 13 14 14 14 14 14 15 16 16 16 16
5 5 6 6 6 6 6 6 6 7 7 7 7 7 7 7 7 8 8 9 10 10 9 9 9 10 10 10 10 11 12 13 13 14 14 15 15 15 15 15 16 16 16
6 6 6 6 6 6 6 6 7 7 7 7 7 7 7 7 8 8 8 9 10 10 10 10 10 10 10 10 11 11 11 12 13 13 14 14 14 15 15 15 16 16 16
7 7 7 7 7 7 7 7 8 8 8 8 8 8 8 8 8 8 8 9 10 10 10 9 10 10 10 10 10 11 11 12 12 13 14 14 14 14 14 15 15 15 15
8 8 8 8 8 8 8 8 8 9 9 9 8 8 8 9 8 9 9 10 10 10 10 10 10 10 10 10 11 11 11 12 12 13 13 13 13 14 14 14 14 13 14
9 9 8 8 9 9 9 9 9 9 9 9 9 9 10 10 10 10 10 10 10 10 10 10 10 10 11 11 11 11 12 13 13 13 13 13 13 14 14 13 12 12 13
10 10 10 10 10 10 10 10 10 10 10 11 10 10 11 11 11 11 11 11 10 10 10 10 11 11 11 11 12 12 12 13 13 13 13 14 13 14 13 13 13 13 13
12 12 12 12 11 11 11 12 12 11 12 12 12 12 12 12 11 12 12 11 11 10 11 11 11 12 12 12 12 12 12 13 13 13 14 14 14 14 14 14 13 13 13
14 14 13 13 13 12 13 13 13 13 13 13 13 13 13 13 12 12 12 12 12 11 11 12 12 12 12 12 13 13 14 14 14 14 14 14 14 14 14 14 14 13 13
15 15 15 15 15 14 14 15 15 15 15 14 14 14 14 14 13 13 13 12 12 12 12 12 12 12 12 13 14 14 15 15 15 16 16 15 15 15 15 15 15 15 15
Wind_Direction
264 257 268 281 282 290 294 296 303 302 296 298 286 271 268 258 255 257 259 256 250 249 241 236 237 236 240 245 247 244 236 227 228 227 223 219 216 211 210 204 203 204 204
265 260 270 282 282 279 282 292 302 301 298 296 290 280 277 271 262 257 254 256 253 250 248 248 243 242 241 242 243 241 239 238 234 231 225 226 224 218 218 214 206 204 206
257 260 270 276 275 275 278 285 290 301 298 295 293 287 288 283 272 263 253 253 254 252 252 252 249 244 240 242 242 239 240 241 239 234 229 228 227 225 223 218 213 213 219
258 260 265 266 268 270 272 276 281 293 297 296 295 296 295 287 278 267 257 252 252 254 254 254 253 249 245 246 244 242 242 239 237 237 235 232 230 229 227 225 222 225 227
260 261 264 263 261 266 271 277 282 289 294 296 291 293 294 289 282 268 255 252 251 251 252 252 252 251 248 246 244 243 241 240 238 239 238 233 231 230 233 232 231 233 233
264 267 265 262 260 264 268 274 280 283 288 292 291 290 294 292 282 262 248 252 250 250 252 252 251 250 248 248 248 245 240 239 239 240 239 235 235 238 240 240 241 241 242
270 270 267 265 263 265 268 273 276 282 286 290 291 289 291 290 278 260 247 251 251 253 255 256 255 254 252 252 252 248 243 241 239 241 241 238 238 241 244 244 244 244 244
278 278 276 271 265 264 268 272 276 283 288 289 288 284 284 285 281 268 259 258 256 252 252 252 252 251 251 253 252 251 249 245 245 242 239 237 237 242 244 244 244 244 248
277 277 276 273 269 267 270 271 276 282 285 288 287 286 283 280 280 272 263 259 260 256 253 252 250 248 249 251 251 249 249 249 246 240 237 238 239 244 246 247 247 248 252
279 278 276 274 274 273 276 276 277 282 286 288 288 288 288 283 276 273 266 263 262 261 258 254 254 252 252 252 251 249 244 242 240 237 235 239 242 244 245 247 248 251 251
289 281 276 275 275 272 273 275 278 283 288 289 288 288 287 284 281 276 269 265 262 261 259 257 256 255 253 252 247 247 245 243 238 234 236 238 241 243 244 245 248 249 248
288 284 285 288 282 275 276 276 279 280 285 286 284 284 287 285 283 278 276 272 266 261 263 259 256 255 252 249 248 248 246 243 240 239 238 239 240 242 243 245 248 248 249
283 285 289 296 291 283 284 284 283 283 284 285 286 287 288 286 284 281 276 269 265 264 267 261 257 256 252 250 249 247 244 242 239 238 238 240 241 242 245 247 249 250 250
296 293 296 299 303 295 293 299 300 294 288 287 289 289 288 286 284 286 280 270 268 268 266 263 263 259 256 253 249 244 240 239 240 239 239 239 240 243 245 249 251 251 250
290 300 302 301 307 305 304 307 307 306 301 295 293 291 287 285 285 287 284 281 278 274 272 267 263 261 257 254 249 244 242 243 240 238 240 241 243 246 248 250 251 251 249
288 290 291 297 303 303 303 304 306 311 312 305 300 296 295 292 287 285 282 280 279 278 277 271 270 266 261 256 253 249 250 247 243 240 240 243 246 248 250 251 250 251 252
291 291 296 297 298 302 303 300 302 309 310 310 306 301 299 297 294 291 287 283 282 280 275 273 273 271 262 256 255 254 254 251 248 247 248 248 245 247 250 249 247 249 252
290 294 297 297 295 298 299 298 299 302 307 307 306 305 301 299 297 295 289 284 283 282 278 276 274 269 263 256 251 252 253 251 251 251 251 251 248 252 253 251 249 249 251
285 288 293 294 294 296 297 298 299 302 305 307 305 305 304 304 301 297 289 285 286 283 279 276 275 271 265 259 255 252 252 250 250 250 251 250 250 255 255 252 249 248 249
281 283 287 290 290 292 294 295 296 299 302 304 302 301 302 303 302 300 295 286 284 282 278 273 273 270 265 258 255 255 254 251 251 250 254 255 253 254 252 250 249 251 252
277 278 280 282 284 288 292 293 293 296 299 300 299 298 298 299 300 298 295 293 287 286 280 274 271 269 265 261 259 257 254 253 255 255 256 256 256 255 254 254 252 251 252
272 274 274 277 281 284 288 290 289 291 293 295 297 297 297 297 297 297 296 296 295 291 283 276 270 270 269 267 263 256 255 253 252 253 256 254 256 257 257 258 261 258 255
273 273 272 274 278 282 285 287 287 289 292 294 294 293 295 296 294 295 296 293 291 290 288 284 274 270 270 270 266 261 257 251 250 252 254 256 256 259 258 257 259 262 259
272 276 278 277 277 280 283 286 287 288 290 291 293 293 293 294 295 295 295 290 287 287 285 285 285 281 275 273 272 267 262 259 256 255 258 260 259 260 257 257 259 260 259
273 276 280 281 280 280 282 284 285 287 289 290 291 292 291 291 292 293 293 289 285 284 281 281 283 282 277 275 274 270 265 264 261 261 261 261 262 261 260 260 258 258 259
275 276 279 280 279 279 280 283 285 286 287 287 288 289 289 289 289 291 292 290 285 285 283 280 280 278 276 274 272 270 268 266 265 264 264 262 263 262 261 261 260 258 257
Height
5858 5858 5857 5857 5857 5857 5857 5856 5856 5856 5856 5856 5856 5856 5856 5856 5856 5856 5856 5857 5857 5858 5858 5860 5861 5861 5862 5863 5863 5864 5865 5865 5866 5867 5868 5868 5869 5870 5871 5872 5874 5875 5875
5857 5857 5857 5857 5857 5856 5856 5856 5856 5856 5855 5855 5855 5855 5854 5854 5855 5855 5855 5856 5856 5857 5857 5858 5859 5860 5861 5862 5862 5863 5864 5865 5865 5866 5867 5868 5869 5870 5871 5872 5873 5874 5875
5856 5856 5856 5856 5856 5856 5855 5855 5855 5855 5855 5854 5854 5853 5853 5853 5853 5853 5854 5854 5855 5855 5856 5857 5858 5859 5860 5860 5861 5862 5863 5864 5864 5865 5866 5867 5868 5869 5870 5871 5872 5873 5874
5855 5855 5855 5855 5855 5855 5854 5854 5854 5854 5854 5853 5852 5852 5851 5851 5850 5850 5851 5852 5853 5854 5855 5855 5856 5857 5858 5859 5860 5860 5861 5862 5863 5864 5865 5866 5867 5868 5869 5870 5871 5872 5872
5853 5854 5854 5854 5854 5854 5853 5853 5853 5853 5852 5852 5851 5851 5849 5848 5845 5845 5848 5850 5851 5852 5853 5854 5855 5855 5856 5857 5858 5859 5860 5861 5861 5862 5863 5864 5866 5866 5868 5869 5870 5870 5871
5852 5852 5853 5853 5853 5852 5852 5852 5852 5851 5851 5851 5850 5849 5848 5845 5842 5841 5845 5848 5849 5851 5852 5852 5853 5854 5854 5855 5856 5857 5858 5859 5859 5861 5862 5863 5864 5865 5866 5867 5868 5869 5870
5851 5851 5851 5851 5851 5851 5851 5851 5850 5850 5850 5849 5849 5848 5847 5845 5843 5842 5844 5847 5848 5849 5850 5851 5851 5852 5852 5853 5854 5855 5855 5857 5857 5859 5860 5861 5862 5863 5864 5865 5867 5867 5868
5850 5850 5850 5850 5850 5849 5849 5849 5849 5849 5848 5848 5847 5847 5846 5845 5844 5844 5845 5846 5847 5847 5848 5849 5849 5850 5850 5851 5852 5852 5853 5854 5855 5857 5858 5859 5860 5861 5862 5863 5864 5865 5866
5849 5849 5848 5848 5848 5848 5848 5848 5847 5847 5847 5846 5846 5846 5845 5844 5844 5844 5844 5845 5845 5846 5846 5847 5847 5847 5848 5849 5849 5850 5851 5852 5853 5854 5856 5857 5858 5859 5860 5861 5862 5863 5864
5847 5847 5847 5847 5847 5847 5846 5846 5846 5846 5845 5845 5844 5844 5844 5843 5843 5843 5843 5843 5843 5844 5844 5844 5845 5845 5846 5846 5847 5848 5849 5850 5850 5852 5853 5855 5856 5857 5858 5859 5860 5861 5861
5846 5846 5846 5846 5846 5845 5845 5845 5845 5844 5844 5844 5843 5843 5842 5842 5841 5841 5841 5841 5841 5841 5842 5842 5843 5843 5844 5844 5845 5846 5847 5848 5849 5849 5851 5852 5853 5854 5855 5856 5857 5858 5859
5845 5845 5845 5845 5844 5844 5844 5844 5843 5843 5842 5842 5842 5841 5841 5841 5840 5839 5839 5839 5839 5839 5840 5840 5840 5841 5842 5842 5843 5844 5845 5846 5847 5847 5849 5850 5851 5852 5853 5854 5855 5855 5856
5844 5844 5844 5843 5843 5843 5842 5842 5842 5842 5841 5841 5840 5840 5839 5839 5838 5838 5838 5837 5838 5838 5838 5837 5838 5839 5839 5840 5840 5841 5842 5843 5844 5845 5846 5847 5848 5849 5850 5851 5852 5853 5854
5843 5843 5843 5843 5842 5842 5842 5841 5841 5840 5840 5839 5839 5838 5838 5837 5837 5836 5836 5836 5836 5836 5835 5835 5836 5836 5837 5837 5838 5838 5839 5840 5842 5842 5843 5844 5845 5847 5848 5849 5849 5850 5851
5843 5843 5842 5842 5841 5841 5841 5840 5840 5839 5839 5838 5837 5837 5836 5836 5835 5835 5834 5834 5834 5834 5834 5833 5833 5834 5834 5834 5835 5836 5837 5838 5839 5840 5841 5842 5843 5844 5845 5845 5846 5847 5848
5842 5842 5842 5841 5841 5840 5840 5839 5839 5838 5838 5837 5836 5835 5835 5834 5834 5833 5832 5832 5832 5832 5831 5831 5831 5831 5831 5831 5832 5833 5834 5835 5836 5837 5838 5839 5840 5840 5841 5842 5842 5843 5844
5841 5841 5840 5840 5840 5839 5839 5838 5838 5837 5837 5836 5835 5834 5833 5833 5832 5831 5831 5830 5830 5829 5829 5829 5828 5828 5828 5829 5829 5830 5831 5832 5833 5834 5835 5836 5837 5837 5838 5838 5839 5839 5841
5840 5840 5839 5839 5838 5838 5838 5837 5836 5836 5835 5835 5834 5833 5832 5831 5830 5830 5829 5828 5828 5827 5827 5826 5826 5826 5826 5826 5827 5828 5829 5829 5830 5831 5832 5833 5834 5834 5834 5835 5835 5836 5837
5839 5838 5838 5837 5837 5837 5836 5836 5835 5834 5834 5833 5832 5831 5830 5830 5829 5828 5827 5826 5826 5825 5825 5824 5824 5824 5824 5824 5825 5826 5826 5827 5828 5828 5829 5830 5830 5831 5831 5832 5832 5832 5833
5837 5837 5836 5836 5836 5835 5835 5834 5833 5833 5832 5831 5830 5830 5829 5828 5827 5826 5825 5824 5824 5823 5822 5822 5822 5822 5822 5822 5823 5823 5824 5824 5825 5826 5826 5827 5827 5828 5828 5828 5828 5829 5829
5835 5835 5834 5834 5834 5833 5833 5832 5831 5831 5830 5829 5828 5828 5827 5826 5825 5824 5823 5822 5821 5821 5820 5820 5820 5819 5819 5820 5820 5821 5821 5822 5822 5823 5823 5823 5824 5824 5824 5825 5825 5825 5826
5833 5832 5832 5832 5832 5831 5830 5830 5829 5829 5828 5827 5826 5825 5824 5823 5823 5822 5821 5820 5819 5818 5818 5817 5817 5817 5817 5817 5817 5818 5818 5819 5819 5819 5820 5820 5820 5821 5821 5821 5821 5822 5822
5830 5830 5829 5829 5829 5828 5828 5827 5827 5826 5825 5824 5823 5823 5822 5821 5820 5819 5818 5817 5817 5816 5815 5815 5815 5814 5814 5814 5814 5815 5815 5816 5816 5816 5816 5817 5817 5817 5817 5818 5818 5819 5819
5827 5827 5826 5826 5825 5825 5825 5824 5824 5823 5822 5821 5820 5819 5819 5818 5817 5816 5815 5815 5814 5813 5813 5812 5812 5811 5811 5811 5811 5811 5812 5812 5813 5814 5814 5814 5814 5814 5814 5815 5815 5815 5816
5824 5823 5823 5822 5822 5821 5821 5821 5820 5820 5819 5818 5817 5816 5815 5815 5814 5813 5812 5812 5811 5810 5810 5810 5809 5809 5808 5808 5808 5808 5808 5809 5809 5810 5810 5811 5811 5811 5811 5811 5812 5812 5813
5820 5820 5819 5819 5818 5818 5817 5817 5816 5816 5815 5814 5814 5813 5812 5811 5810 5809 5809 5808 5807 5807 5807 5806 5806 5806 5805 5805 5805 5805 5805 5805 5805 5806 5806 5807 5807 5807 5808 5808 5808 5809 5810